Regional Weather Roundup
Issued by NWS Portland, ME

Home | Current Version | Previous Version | Text Only | Print | Product List | Glossary On
Versions: 1 2 3 4 5 6 7 8 9 10 11 12 13 14 15 16 17 18 19 20 21 22 23 24 25 26 27 28 29 30 31 32 33 34 35 36 37 38 39 40 41 42 43 44 45 46 47 48 49 50
000
ASUS41 KGYX 270510
RWRGYX
WEATHER ROUNDUP FOR MAINE AND NEW HAMPSHIRE
NATIONAL WEATHER SERVICE GRAY ME
100 AM EDT TUE JUN 27 2017

MEZ002-005-006-010-012-015-018-020-021-024-026-027-029-270600-
MAINE

CITY           SKY/WX    TMP DP  RH WIND       PRES   REMARKS
PORTLAND       CLOUDY    62  52  69 CALM      29.96S
SANFORD        MOCLDY    58  56  93 SW3       29.98R
BAR HARBOR     CLEAR     54  52  93 CALM      29.98S
WISCASSET      PTCLDY    55  53  93 CALM      29.97S
ROCKLAND       CLEAR     54  53  97 CALM      29.97S
FRYEBURG       CLEAR     57  49  74 SW3       29.97R
LEWISTONAUBURN PTCLDY    55  53  93 CALM      29.96S
AUGUSTA        PTCLDY    57  52  83 SE5       29.96S
WATERVILLE     CLOUDY    58  53  84 CALM      29.93F
BANGOR         CLOUDY    58  53  84 CALM      29.97R
GREENVILLE       N/A     53  45  74 N6        29.96R
MILLINOCKET    CLEAR     52  50  93 CALM      29.97R
HOULTON        MOCLDY    46  46 100 CALM      29.94R
PRESQUE ISLE   CLEAR     50  48  93 CALM      29.96R
FRENCHVILLE    CLEAR     51  38  60 NW7       29.95R
CARIBOU        CLEAR     54  44  69 N5        29.94S
$$

NHZ002-005-008-009-011-012-014-270600-
NEW HAMPSHIRE

CITY           SKY/WX    TMP DP  RH WIND       PRES   REMARKS
PORTSMOUTH     MOCLDY    62  56  82 W3        29.96S
ROCHESTER      PTCLDY    58  55  90 CALM      29.97S
NASHUA         CLOUDY    58  57  97 CALM      30.00R
MANCHESTER     MOCLDY    60  55  83 CALM      29.98R
CONCORD        LGT RAIN  59  57  93 CALM      30.00R
LACONIA        PTCLDY   N/A N/A N/A W3        29.99R
PLYMOUTH       FAIR      52  51  95 CALM      30.00R
BERLIN         PTCLDY    50  46  86 CALM      29.98S
WHITEFIELD     PTCLDY    50  46  86 CALM      29.98S
JAFFREY        CLOUDY    57  57 100 CALM      30.02R
KEENE          CLOUDY    58  56  93 W3        30.01S
LEBANON        CLOUDY    55  53  93 CALM      30.00R
MT WASHINGTON  PTCLDY    37  36  93 W22         N/A
$$

VTZ005-007-008-270600-
VERMONT

CITY           SKY/WX    TMP DP  RH WIND       PRES   REMARKS
ST JOHNSBURY     N/A     54  53  97 MISG      29.97R
MONTPELIER     CLOUDY    53  51  93 E5        30.01R
BURLINGTON     LGT RAIN  61  55  81 SW13      29.97R
$$

MAZ007-012-024-CTZ003-RIZ002-NYZ038-NYZ072-270600-
SOUTHERN NEW ENGLAND AND NY

CITY           SKY/WX    TMP DP  RH WIND       PRES   REMARKS
BOSTON         PTCLDY    62  53  72 S6        29.99F
WORCESTER      CLEAR     58  51  78 CALM      30.01S
NANTUCKET        N/A     60  60 100 SW6       30.02S
PROVIDENCE     CLEAR     62  58  86 S3        30.01S
HARTFORD       CLEAR     59  55  87 N8        30.00R
ALBANY         LGT RAIN  58  55  90 E6        30.01F
NEW YORK CITY  CLEAR     73  51  46 SW6       29.97F
$$

ANZ081-ANZ082-ANZ150-NHZ014-MEZ023>029-270600-
COASTAL MARINE OBSERVATIONS

STATION/POSITION TIME  TEMP    WIND        PRES    WAVE
                       AIR SEA DIR/SP/G            HT/PER
                 (UTC) (F)     (DEG/KT/KT) (MB)    (FT/S)
MATINICUS ROCK   0400   58     190/ 15/ 15 1014.6F
ISLE OF SHOALS   0400   64     270/ 13/ 14 1015.1R
JEFFREYS LEDGE   0436      56                N/A     2/ 6
CASHES LEDGE BUO 0350   63 61              1014.8    2/ 8
GEORGES BANK BUO 0350   56 55              1017.1    3/ 7
$$

.............KEY..............
   WCI - WIND CHILL
   TC  - TEMPERATURE IN CELSIUS
   VSB - VISIBILITY IN MILES
   HX  - HEAT INDEX
   FAIR- INDICATES FEW OR NO CLOUDS BELOW 12,000 FT, WITH NO
         SIGNIFICANT WEATHER AND/OR OBSTRUCTIONS TO VISIBILITY.






USA.gov is the U.S. government's official web portal to all federal, state and local government web resources and services.